Weather History for LTAI - January, 2012

Change the Weather History Date:

Saturday, January 7, 2012

  Actual Average Record
Temperature  
Mean Temperature 54 °F -  
Max Temperature 61 °F 59 °F 66 °F (1997)
Min Temperature 48 °F 43 °F 33 °F (2004)
Degree Days  
Heating Degree Days 10    
Growing Degree Days 4 (Base 50)    
Moisture  
Dew Point 48 °F    
Average Humidity 70    
Maximum Humidity 93    
Minimum Humidity 50    
Precipitation  
Precipitation 0.63 in 0.30 in - ()
Sea Level Pressure  
Sea Level Pressure 29.70 in    
Wind  
Wind Speed 20 mph ()    
Max Wind Speed 32 mph    
Max Gust Speed 46 mph    
Visibility 5.8 miles    
Events Rain , Thunderstorm    
Averages and records for this station are not official NWS values.
T = Trace of Precipitation, MM = Missing Value Source: Averaged Metar Reports

Daily Weather History Graph

Daily Weather History Graph

Search for Another Location

Airport or City:

Trip Planner

Search our weather history database for the weather conditions in past years. The results will help you decide how hot, cold, wet, or windy it might be!

Date:

Astronomy

Jan. 07, 2012 Rise Set
Actual Time 7:10 AM EET 4:55 PM EET
Civil Twilight 6:41 AM EET 5:24 PM EET
Nautical Twilight 6:09 AM EET 5:56 PM EET
Astronomical Twilight 5:37 AM EET 6:27 PM EET
Moon 3:21 PM EET (1/7) 5:24 AM EET (1/7)
Length of Visible Light 10h 42m
Length of Day
9h 45m
Waxing Gibbous, 96% of the Moon is Illuminated
Jan 7
Waxing Gibbous
Jan 9
Full
Jan 16
Last Quarter
Jan 23
New
Jan 31
First Quarter

Hourly Weather History & Observations

Time (EET) Temp. Dew Point Humidity Pressure Visibility Wind Dir Wind Speed Gust Speed Precip Events Conditions
12:20 AM 59.0 °F 50.0 °F 72% 29.68 in 6.2 mi South 25.3 mph 38.0 mph N/A Rain , Thunderstorm Light Thunderstorms and Rain
12:50 AM 60.8 °F 50.0 °F 68% 29.71 in 6.2 mi South 26.5 mph 39.1 mph N/A   Mostly Cloudy
1:20 AM 60.8 °F 50.0 °F 68% 29.68 in 6.2 mi South 26.5 mph 38.0 mph N/A   Mostly Cloudy
1:50 AM 59.0 °F 50.0 °F 72% 29.71 in 6.2 mi SSE 25.3 mph 36.8 mph N/A Rain , Thunderstorm Light Thunderstorms and Rain
2:00 AM 59 °F 50 °F 64% 29.70 in 6 mi SSE 25.3 mph - - Rain , Thunderstorm Thunderstorms and Rain
2:20 AM 59.0 °F 51.8 °F 77% 29.71 in 6.2 mi SSE 20.7 mph 41.4 mph N/A Rain , Thunderstorm Light Thunderstorms and Rain
2:50 AM 60.8 °F 50.0 °F 68% 29.68 in 6.2 mi SSE 23.0 mph 34.5 mph N/A Rain , Thunderstorm Light Thunderstorms and Rain
3:20 AM 60.8 °F 51.8 °F 72% 29.71 in 6.2 mi SSE 21.9 mph 38.0 mph N/A   Mostly Cloudy
3:50 AM 60.8 °F 50.0 °F 68% 29.68 in 6.2 mi SSE 27.6 mph 40.3 mph N/A   Mostly Cloudy
4:20 AM 60.8 °F 51.8 °F 72% 29.68 in 6.2 mi SSE 23.0 mph - N/A   Mostly Cloudy
4:50 AM 60.8 °F 50.0 °F 68% 29.68 in 6.2 mi SSE 25.3 mph 36.8 mph N/A Rain , Thunderstorm Light Thunderstorms and Rain
5:20 AM 60.8 °F 50.0 °F 68% 29.68 in 6.2 mi SSE 20.7 mph 33.4 mph N/A Rain , Thunderstorm Light Thunderstorms and Rain
5:50 AM 60.8 °F 50.0 °F 68% 29.68 in 6.2 mi SSE 21.9 mph 34.5 mph N/A Rain , Thunderstorm Light Thunderstorms and Rain
6:20 AM 60.8 °F 50.0 °F 68% 29.68 in 6.2 mi SSE 23.0 mph 38.0 mph N/A Rain , Thunderstorm Light Thunderstorms and Rain
6:50 AM 59.0 °F 51.8 °F 77% 29.68 in 6.2 mi SSE 23.0 mph 39.1 mph N/A Rain , Thunderstorm Light Thunderstorms and Rain
7:20 AM 55.4 °F 50.0 °F 82% 29.71 in 6.2 mi South 28.8 mph - N/A Rain , Thunderstorm Light Thunderstorms and Rain
7:50 AM 53.6 °F 50.0 °F 88% 29.71 in 1.2 mi South 29.9 mph 46.0 mph N/A Rain , Thunderstorm Light Thunderstorms and Rain
8:00 AM 54 °F 50 °F 80% 29.71 in 1 mi South 29.9 mph - - Rain , Thunderstorm Thunderstorms and Rain
8:20 AM 55.4 °F 48.2 °F 77% 29.71 in 2.5 mi SSE 25.3 mph 39.1 mph N/A Rain , Thunderstorm Light Thunderstorms and Rain
8:50 AM 57.2 °F 50.0 °F 77% 29.74 in 6.2 mi SSE 23.0 mph 35.7 mph N/A Rain , Thunderstorm Light Thunderstorms and Rain
9:20 AM 57.2 °F 51.8 °F 82% 29.74 in 6.2 mi SE 20.7 mph - N/A Rain , Thunderstorm Light Thunderstorms and Rain
9:50 AM 59.0 °F 48.2 °F 67% 29.74 in 6.2 mi SSE 20.7 mph 32.2 mph N/A Rain , Thunderstorm Light Thunderstorms and Rain
10:20 AM 60.8 °F 48.2 °F 63% 29.74 in 6.2 mi SSE 24.2 mph - N/A Rain , Thunderstorm Light Thunderstorms and Rain
10:50 AM 60.8 °F 46.4 °F 59% 29.74 in 6.2 mi SSE 19.6 mph 32.2 mph N/A Rain , Thunderstorm Light Thunderstorms and Rain
11:20 AM 60.8 °F 48.2 °F 63% 29.71 in 6.2 mi SSE 23.0 mph 34.5 mph N/A Rain , Thunderstorm Light Thunderstorms and Rain
11:50 AM 60.8 °F 48.2 °F 63% 29.71 in 6.2 mi South 23.0 mph - N/A Rain , Thunderstorm Light Thunderstorms and Rain
12:20 PM 60.8 °F 50.0 °F 68% 29.71 in 6.2 mi SSE 20.7 mph 32.2 mph N/A Rain , Thunderstorm Light Thunderstorms and Rain
12:50 PM 60.8 °F 48.2 °F 63% 29.71 in 6.2 mi SSE 20.7 mph 32.2 mph N/A Rain , Thunderstorm Light Thunderstorms and Rain
1:20 PM 60.8 °F 46.4 °F 59% 29.71 in 6.2 mi SSE 26.5 mph 38.0 mph N/A Rain , Thunderstorm Light Thunderstorms and Rain
1:50 PM 60.8 °F 48.2 °F 63% 29.71 in 6.2 mi SSE 21.9 mph 33.4 mph N/A   Mostly Cloudy
2:00 PM 61 °F 47 °F 50% 29.69 in 6 mi SSE 21.9 mph - - Thunderstorm Light Thunderstorm
2:20 PM 60.8 °F 48.2 °F 63% 29.71 in 6.2 mi South 23.0 mph 34.5 mph N/A   Mostly Cloudy
2:50 PM 59.0 °F 44.6 °F 59% 29.71 in 6.2 mi South 32.2 mph 43.7 mph N/A   Mostly Cloudy
3:20 PM 59.0 °F 44.6 °F 59% 29.71 in 6.2 mi South 15.0 mph - N/A   Mostly Cloudy
3:50 PM 53.6 °F 44.6 °F 72% 29.74 in 6.2 mi SSW 27.6 mph - N/A Rain , Thunderstorm Light Thunderstorms and Rain
4:20 PM 55.4 °F 41.0 °F 58% 29.71 in 6.2 mi South 11.5 mph - N/A Rain , Thunderstorm Light Thunderstorms and Rain
4:50 PM 57.2 °F 48.2 °F 72% 29.71 in 6.2 mi SE 17.3 mph 28.8 mph N/A Rain , Thunderstorm Light Thunderstorms and Rain
5:20 PM 55.4 °F 48.2 °F 77% 29.68 in 6.2 mi ESE 11.5 mph - N/A Rain , Thunderstorm Light Thunderstorms and Rain
5:50 PM 51.8 °F 44.6 °F 76% 29.71 in 6.2 mi South 20.7 mph - N/A Rain , Thunderstorm Light Thunderstorms and Rain
6:20 PM 53.6 °F 44.6 °F 72% 29.71 in 6.2 mi South 16.1 mph 31.1 mph N/A Rain , Thunderstorm Light Thunderstorms and Rain
6:50 PM 53.6 °F 48.2 °F 82% 29.71 in 6.2 mi SE 10.4 mph - N/A Rain , Thunderstorm Light Thunderstorms and Rain
7:20 PM 55.4 °F 46.4 °F 72% 29.71 in 6.2 mi SE 10.4 mph - N/A Rain , Thunderstorm Light Thunderstorms and Rain
7:50 PM 57.2 °F 44.6 °F 63% 29.68 in 6.2 mi SE 20.7 mph 35.7 mph N/A Rain , Thunderstorm Light Thunderstorms and Rain
8:00 PM 57 °F 44 °F 53% 29.68 in 6 mi SE 20.7 mph - - Rain , Thunderstorm Thunderstorms and Rain
8:20 PM 57.2 °F 42.8 °F 59% 29.68 in 6.2 mi SE 15.0 mph - N/A Rain , Thunderstorm Light Thunderstorms and Rain
8:50 PM 59.0 °F 46.4 °F 63% 29.68 in 6.2 mi SE 16.1 mph - N/A Rain , Thunderstorm Light Thunderstorms and Rain
9:20 PM 50.0 °F 44.6 °F 82% 29.68 in 2.5 mi South 18.4 mph - N/A Rain , Thunderstorm Thunderstorms and Rain
9:50 PM 48.2 °F 44.6 °F 87% 29.71 in 2.5 mi North 8.1 mph - N/A Rain , Thunderstorm Thunderstorms and Rain
10:20 PM 50.0 °F 46.4 °F 87% 29.71 in 6.2 mi NE 4.6 mph - N/A Rain , Thunderstorm Light Thunderstorms and Rain
10:50 PM 48.2 °F 46.4 °F 93% 29.71 in 6.2 mi ESE 8.1 mph - N/A Rain , Thunderstorm Light Thunderstorms and Rain
11:20 PM 51.8 °F 46.4 °F 82% 29.68 in 6.2 mi South 10.4 mph - N/A Rain , Thunderstorm Light Thunderstorms and Rain
11:50 PM 53.6 °F 46.4 °F 77% 29.68 in 6.2 mi South 10.4 mph - N/A Rain , Thunderstorm Light Thunderstorms and Rain